Time,TemperatureF,DewpointF,PressureIn,WindDirection,WindDirectionDegrees,WindSpeedMPH,WindSpeedGustMPH,Humidity,HourlyPrecipIn,Conditions,Clouds,dailyrainin,SoftwareType,DateUTC
2013-06-01 00:02:00,65.0,61.0,29.82,North,0,8.0,11.0,88,-99.99,,,-99.99,,2013-06-01 05:02:00,
2013-06-01 00:12:00,65.0,61.0,29.81,ENE,75,8.0,12.0,88,-99.99,,,-99.99,,2013-06-01 05:12:00,
2013-06-01 00:22:00,65.0,61.0,29.82,NE,40,5.0,10.0,88,-99.99,,,-99.99,,2013-06-01 05:22:00,
2013-06-01 00:32:00,65.0,62.0,29.81,East,80,6.0,8.0,88,-99.99,,,-99.99,,2013-06-01 05:32:00,
2013-06-01 00:42:00,65.0,62.0,29.81,East,80,6.0,8.0,88,-99.99,,,-99.99,,2013-06-01 05:42:00,
2013-06-01 00:52:00,66.0,62.0,29.84,NW,305,5.0,11.0,88,-99.99,,,-99.99,,2013-06-01 05:52:00,
2013-06-01 01:01:00,66.0,62.0,29.84,NW,305,5.0,11.0,88,-99.99,,,-99.99,,2013-06-01 06:01:00,
2013-06-01 01:12:00,65.0,62.0,29.85,SSE,165,15.0,21.0,88,-99.99,,,-99.99,,2013-06-01 06:12:00,
2013-06-01 01:22:00,65.0,62.0,29.80,NNE,15,10.0,14.0,89,-99.99,,,-99.99,,2013-06-01 06:22:00,
2013-06-01 01:32:00,65.0,62.0,29.76,NE,50,3.0,10.0,89,-99.99,,,-99.99,,2013-06-01 06:32:00,
2013-06-01 01:42:00,65.0,62.0,29.76,NE,50,3.0,10.0,89,-99.99,,,-99.99,,2013-06-01 06:42:00,
2013-06-01 01:52:00,65.0,62.0,29.73,SSE,160,16.0,26.0,88,-99.99,,,-99.99,,2013-06-01 06:52:00,
2013-06-01 02:01:00,65.0,62.0,29.73,SSE,160,16.0,26.0,88,-99.99,,,-99.99,,2013-06-01 07:01:00,
2013-06-01 02:11:00,70.0,57.0,29.71,SW,220,18.0,24.0,65,-99.99,,,-99.99,,2013-06-01 07:11:00,
2013-06-01 02:22:00,69.0,62.0,29.74,SSW,200,20.0,31.0,78,-99.99,,,-99.99,,2013-06-01 07:22:00,
2013-06-01 02:32:00,67.0,62.0,29.73,SSW,210,5.0,34.0,83,-99.99,,,-99.99,,2013-06-01 07:32:00,
2013-06-01 02:42:00,67.0,62.0,29.73,SSW,210,5.0,34.0,83,-99.99,,,-99.99,,2013-06-01 07:42:00,
2013-06-01 02:52:00,67.0,62.0,29.73,South,185,7.0,13.0,85,-99.99,,,-99.99,,2013-06-01 07:52:00,
2013-06-01 03:02:00,67.0,62.0,29.73,South,185,7.0,13.0,85,-99.99,,,-99.99,,2013-06-01 08:02:00,
2013-06-01 03:11:00,67.0,62.0,29.75,NW,325,19.0,27.0,84,-99.99,,,-99.99,,2013-06-01 08:11:00,
2013-06-01 03:21:00,65.0,61.0,29.72,North,5,7.0,11.0,87,-99.99,,,-99.99,,2013-06-01 08:21:00,
2013-06-01 03:32:00,65.0,62.0,29.70,NNE,20,3.0,7.0,88,-99.99,,,-99.99,,2013-06-01 08:32:00,
2013-06-01 03:42:00,65.0,62.0,29.70,NNE,20,3.0,7.0,88,-99.99,,,-99.99,,2013-06-01 08:42:00,
2013-06-01 03:52:00,65.0,62.0,29.73,SE,130,6.0,10.0,88,-99.99,,,-99.99,,2013-06-01 08:52:00,
2013-06-01 04:01:00,65.0,62.0,29.73,SE,130,6.0,10.0,88,-99.99,,,-99.99,,2013-06-01 09:01:00,
2013-06-01 04:12:00,65.0,62.0,29.73,ESE,110,9.0,13.0,89,-99.99,,,-99.99,,2013-06-01 09:12:00,
2013-06-01 04:21:00,66.0,62.0,29.74,NNE,25,1.0,10.0,87,-99.99,,,-99.99,,2013-06-01 09:21:00,
2013-06-01 04:33:00,66.0,62.0,29.74,NNE,25,1.0,10.0,87,-99.99,,,-99.99,,2013-06-01 09:33:00,
2013-06-01 04:42:00,65.0,62.0,29.74,ENE,70,3.0,7.0,88,-99.99,,,-99.99,,2013-06-01 09:42:00,
2013-06-01 04:53:00,65.0,61.0,29.75,East,100,1.0,3.0,87,-99.99,,,-99.99,,2013-06-01 09:53:00,
2013-06-01 05:02:00,65.0,61.0,29.75,East,100,1.0,3.0,87,-99.99,,,-99.99,,2013-06-01 10:02:00,
2013-06-01 05:13:00,65.0,62.0,29.75,North,355,6.0,8.0,88,-99.99,,,-99.99,,2013-06-01 10:13:00,
2013-06-01 05:22:00,65.0,62.0,29.76,North,10,5.0,10.0,90,-99.99,,,-99.99,,2013-06-01 10:22:00,
2013-06-01 05:33:00,65.0,62.0,29.78,ENE,70,4.0,10.0,90,-99.99,,,-99.99,,2013-06-01 10:33:00,
2013-06-01 05:42:00,65.0,62.0,29.78,ENE,70,4.0,10.0,90,-99.99,,,-99.99,,2013-06-01 10:42:00,
2013-06-01 05:52:00,65.0,62.0,29.81,ESE,110,6.0,9.0,90,-99.99,,,-99.99,,2013-06-01 10:52:00,
2013-06-01 06:02:00,65.0,62.0,29.81,ESE,110,6.0,9.0,90,-99.99,,,-99.99,,2013-06-01 11:02:00,
2013-06-01 06:11:00,65.0,62.0,29.83,SE,125,4.0,12.0,90,-99.99,,,-99.99,,2013-06-01 11:11:00,
2013-06-01 06:21:00,65.0,62.0,29.82,SE,135,7.0,12.0,90,-99.99,,,-99.99,,2013-06-01 11:21:00,
2013-06-01 06:32:00,66.0,62.0,29.83,SSE,160,7.0,10.0,88,-99.99,,,-99.99,,2013-06-01 11:32:00,
2013-06-01 06:42:00,66.0,62.0,29.83,SSE,160,7.0,10.0,88,-99.99,,,-99.99,,2013-06-01 11:42:00,
2013-06-01 06:52:00,66.0,62.0,29.82,SE,145,7.0,12.0,87,-99.99,,,-99.99,,2013-06-01 11:52:00,
2013-06-01 07:01:00,66.0,62.0,29.82,SE,145,7.0,12.0,87,-99.99,,,-99.99,,2013-06-01 12:01:00,
2013-06-01 07:12:00,66.0,62.0,29.80,ESE,115,6.0,10.0,87,-99.99,,,-99.99,,2013-06-01 12:12:00,
2013-06-01 07:21:00,66.0,62.0,29.79,ESE,115,7.0,11.0,88,-99.99,,,-99.99,,2013-06-01 12:21:00,
2013-06-01 07:32:00,66.0,62.0,29.79,ESE,115,7.0,11.0,88,-99.99,,,-99.99,,2013-06-01 12:32:00,
2013-06-01 07:42:00,65.0,62.0,29.75,ESE,120,12.0,19.0,88,-99.99,,,-99.99,,2013-06-01 12:42:00,
2013-06-01 07:52:00,66.0,62.0,29.78,South,175,9.0,14.0,88,-99.99,,,-99.99,,2013-06-01 12:52:00,
2013-06-01 08:01:00,66.0,62.0,29.78,South,175,9.0,14.0,88,-99.99,,,-99.99,,2013-06-01 13:01:00,
2013-06-01 08:11:00,66.0,62.0,29.77,South,180,8.0,14.0,88,-99.99,,,-99.99,,2013-06-01 13:11:00,
2013-06-01 08:22:00,66.0,62.0,29.78,South,180,12.0,16.0,87,-99.99,,,-99.99,,2013-06-01 13:22:00,
2013-06-01 08:32:00,66.0,62.0,29.78,South,180,12.0,16.0,87,-99.99,,,-99.99,,2013-06-01 13:32:00,
2013-06-01 08:42:00,66.0,62.0,29.75,South,180,11.0,18.0,88,-99.99,,,-99.99,,2013-06-01 13:42:00,
2013-06-01 08:52:00,65.0,61.0,29.73,SSE,165,12.0,23.0,86,-99.99,,,-99.99,,2013-06-01 13:52:00,
2013-06-01 09:02:00,65.0,61.0,29.73,SSE,165,12.0,23.0,86,-99.99,,,-99.99,,2013-06-01 14:02:00,
2013-06-01 09:11:00,65.0,61.0,29.74,SSE,155,12.0,19.0,85,-99.99,,,-99.99,,2013-06-01 14:11:00,
2013-06-01 09:21:00,65.0,61.0,29.77,South,190,7.0,14.0,85,-99.99,,,-99.99,,2013-06-01 14:21:00,
2013-06-01 09:32:00,65.0,61.0,29.78,South,190,10.0,13.0,85,-99.99,,,-99.99,,2013-06-01 14:32:00,
2013-06-01 09:42:00,65.0,61.0,29.78,South,190,10.0,13.0,85,-99.99,,,-99.99,,2013-06-01 14:42:00,
2013-06-01 09:52:00,66.0,62.0,29.81,West,280,7.0,13.0,87,-99.99,,,-99.99,,2013-06-01 14:52:00,
2013-06-01 10:02:00,66.0,62.0,29.81,West,280,7.0,13.0,87,-99.99,,,-99.99,,2013-06-01 15:02:00,
2013-06-01 10:11:00,66.0,62.0,29.81,WNW,290,8.0,14.0,87,-99.99,,,-99.99,,2013-06-01 15:11:00,
2013-06-01 10:21:00,65.0,62.0,29.79,WNW,285,7.0,11.0,88,-99.99,,,-99.99,,2013-06-01 15:21:00,
2013-06-01 10:33:00,65.0,61.0,29.81,WNW,285,11.0,15.0,87,-99.99,,,-99.99,,2013-06-01 15:33:00,
2013-06-01 10:43:00,65.0,61.0,29.81,WNW,285,11.0,15.0,87,-99.99,,,-99.99,,2013-06-01 15:43:00,
2013-06-01 10:53:00,65.0,61.0,29.83,West,270,12.0,17.0,87,-99.99,,,-99.99,,2013-06-01 15:53:00,
2013-06-01 11:03:00,65.0,61.0,29.83,West,270,12.0,17.0,87,-99.99,,,-99.99,,2013-06-01 16:03:00,
2013-06-01 11:12:00,66.0,62.0,29.83,West,280,7.0,14.0,87,-99.99,,,-99.99,,2013-06-01 16:12:00,
2013-06-01 11:23:00,67.0,61.0,29.83,WSW,250,4.0,9.0,83,-99.99,,,-99.99,,2013-06-01 16:23:00,
2013-06-01 11:33:00,67.0,61.0,29.82,WSW,245,6.0,13.0,81,-99.99,,,-99.99,,2013-06-01 16:33:00,
2013-06-01 11:42:00,67.0,61.0,29.82,WSW,245,6.0,13.0,81,-99.99,,,-99.99,,2013-06-01 16:42:00,
2013-06-01 11:52:00,67.0,61.0,29.83,SW,235,7.0,12.0,79,-99.99,,,-99.99,,2013-06-01 16:52:00,
2013-06-01 12:02:00,67.0,61.0,29.83,SW,235,7.0,12.0,79,-99.99,,,-99.99,,2013-06-01 17:02:00,
2013-06-01 12:12:00,68.0,61.0,29.83,West,260,5.0,15.0,79,-99.99,,,-99.99,,2013-06-01 17:12:00,
2013-06-01 12:22:00,68.0,61.0,29.84,SW,235,10.0,15.0,77,-99.99,,,-99.99,,2013-06-01 17:22:00,
2013-06-01 12:32:00,68.0,61.0,29.83,WSW,240,9.0,16.0,78,-99.99,,,-99.99,,2013-06-01 17:32:00,
2013-06-01 12:42:00,68.0,61.0,29.83,WSW,240,9.0,16.0,78,-99.99,,,-99.99,,2013-06-01 17:42:00,
2013-06-01 12:52:00,69.0,61.0,29.84,West,275,8.0,15.0,76,-99.99,,,-99.99,,2013-06-01 17:52:00,
2013-06-01 13:01:00,69.0,61.0,29.84,West,275,8.0,15.0,76,-99.99,,,-99.99,,2013-06-01 18:01:00,
2013-06-01 13:12:00,70.0,62.0,29.84,West,260,6.0,14.0,77,-99.99,,,-99.99,,2013-06-01 18:12:00,
2013-06-01 13:22:00,70.0,61.0,29.84,WSW,240,10.0,17.0,73,-99.99,,,-99.99,,2013-06-01 18:22:00,
2013-06-01 13:32:00,70.0,61.0,29.84,WSW,240,10.0,17.0,73,-99.99,,,-99.99,,2013-06-01 18:32:00,
2013-06-01 13:42:00,71.0,62.0,29.84,West,265,13.0,17.0,73,-99.99,,,-99.99,,2013-06-01 18:42:00,
2013-06-01 13:51:00,72.0,61.0,29.85,West,260,10.0,20.0,68,-99.99,,,-99.99,,2013-06-01 18:51:00,
2013-06-01 14:02:00,72.0,61.0,29.85,West,260,10.0,20.0,68,-99.99,,,-99.99,,2013-06-01 19:02:00,
2013-06-01 14:11:00,72.0,60.0,29.85,SW,230,8.0,17.0,65,-99.99,,,-99.99,,2013-06-01 19:11:00,
2013-06-01 14:21:00,73.0,58.0,29.85,West,260,11.0,19.0,61,-99.99,,,-99.99,,2013-06-01 19:21:00,
2013-06-01 14:32:00,73.0,59.0,29.85,West,260,9.0,15.0,61,-99.99,,,-99.99,,2013-06-01 19:32:00,
2013-06-01 14:42:00,73.0,59.0,29.85,West,260,9.0,15.0,61,-99.99,,,-99.99,,2013-06-01 19:42:00,
2013-06-01 14:52:00,74.0,58.0,29.85,West,260,11.0,19.0,58,-99.99,,,-99.99,,2013-06-01 19:52:00,
2013-06-01 15:02:00,74.0,58.0,29.85,West,260,11.0,19.0,58,-99.99,,,-99.99,,2013-06-01 20:02:00,
2013-06-01 15:12:00,74.0,56.0,29.84,West,275,19.0,25.0,53,-99.99,,,-99.99,,2013-06-01 20:12:00,
2013-06-01 15:21:00,74.0,58.0,29.85,West,270,18.0,23.0,57,-99.99,,,-99.99,,2013-06-01 20:21:00,
2013-06-01 15:32:00,74.0,59.0,29.85,West,265,15.0,22.0,60,-99.99,,,-99.99,,2013-06-01 20:32:00,
2013-06-01 15:42:00,74.0,59.0,29.85,West,265,15.0,22.0,60,-99.99,,,-99.99,,2013-06-01 20:42:00,
2013-06-01 15:52:00,75.0,60.0,29.85,West,280,12.0,20.0,60,-99.99,,,-99.99,,2013-06-01 20:52:00,
2013-06-01 16:01:00,75.0,60.0,29.85,West,280,12.0,20.0,60,-99.99,,,-99.99,,2013-06-01 21:01:00,
2013-06-01 16:11:00,74.0,58.0,29.85,West,280,12.0,20.0,57,-99.99,,,-99.99,,2013-06-01 21:11:00,
2013-06-01 16:21:00,74.0,58.0,29.86,West,275,13.0,21.0,58,-99.99,,,-99.99,,2013-06-01 21:21:00,
2013-06-01 16:33:00,74.0,58.0,29.86,West,275,13.0,21.0,58,-99.99,,,-99.99,,2013-06-01 21:33:00,
2013-06-01 16:42:00,74.0,58.0,29.87,West,275,14.0,21.0,58,-99.99,,,-99.99,,2013-06-01 21:42:00,
2013-06-01 16:53:00,74.0,57.0,29.87,West,270,13.0,19.0,57,-99.99,,,-99.99,,2013-06-01 21:53:00,
2013-06-01 17:03:00,74.0,57.0,29.87,West,270,13.0,19.0,57,-99.99,,,-99.99,,2013-06-01 22:03:00,
2013-06-01 17:12:00,73.0,57.0,29.87,WNW,300,13.0,25.0,56,-99.99,,,-99.99,,2013-06-01 22:12:00,
2013-06-01 17:23:00,73.0,55.0,29.87,WNW,295,15.0,22.0,54,-99.99,,,-99.99,,2013-06-01 22:23:00,
2013-06-01 17:33:00,74.0,56.0,29.87,WNW,285,13.0,20.0,55,-99.99,,,-99.99,,2013-06-01 22:33:00,
2013-06-01 17:42:00,74.0,56.0,29.87,WNW,285,13.0,20.0,55,-99.99,,,-99.99,,2013-06-01 22:42:00,
2013-06-01 17:53:00,73.0,56.0,29.88,West,280,16.0,21.0,55,-99.99,,,-99.99,,2013-06-01 22:53:00,
2013-06-01 18:02:00,73.0,56.0,29.88,West,280,16.0,21.0,55,-99.99,,,-99.99,,2013-06-01 23:02:00,
2013-06-01 18:11:00,72.0,56.0,29.87,WNW,295,13.0,21.0,57,-99.99,,,-99.99,,2013-06-01 23:11:00,
2013-06-01 18:22:00,72.0,55.0,29.87,WNW,285,15.0,23.0,54,-99.99,,,-99.99,,2013-06-01 23:22:00,
2013-06-01 18:32:00,73.0,55.0,29.87,West,275,11.0,17.0,53,-99.99,,,-99.99,,2013-06-01 23:32:00,
2013-06-01 18:42:00,73.0,55.0,29.87,West,275,11.0,17.0,53,-99.99,,,-99.99,,2013-06-01 23:42:00,
2013-06-01 18:52:00,72.0,56.0,29.88,WNW,300,8.0,20.0,56,-99.99,,,-99.99,,2013-06-01 23:52:00,
2013-06-01 19:02:00,72.0,56.0,29.88,WNW,300,8.0,20.0,56,-99.99,,,-99.99,,2013-06-02 00:02:00,
2013-06-01 19:11:00,72.0,54.0,29.88,WNW,290,13.0,18.0,54,-99.99,,,-99.99,,2013-06-02 00:11:00,
2013-06-01 19:21:00,71.0,55.0,29.88,WNW,295,9.0,21.0,56,-99.99,,,-99.99,,2013-06-02 00:21:00,
2013-06-01 19:32:00,71.0,55.0,29.88,WNW,295,9.0,21.0,56,-99.99,,,-99.99,,2013-06-02 00:32:00,
2013-06-01 19:42:00,71.0,55.0,29.88,WNW,290,10.0,15.0,56,-99.99,,,-99.99,,2013-06-02 00:42:00,
2013-06-01 19:51:00,71.0,54.0,29.89,WNW,295,10.0,21.0,56,-99.99,,,-99.99,,2013-06-02 00:51:00,
2013-06-01 20:01:00,71.0,54.0,29.89,WNW,295,10.0,21.0,56,-99.99,,,-99.99,,2013-06-02 01:01:00,
2013-06-01 20:11:00,69.0,54.0,29.89,NW,305,10.0,17.0,59,-99.99,,,-99.99,,2013-06-02 01:11:00,
2013-06-01 20:21:00,69.0,55.0,29.90,WNW,300,6.0,13.0,62,-99.99,,,-99.99,,2013-06-02 01:21:00,
2013-06-01 20:32:00,69.0,55.0,29.90,WNW,290,8.0,14.0,62,-99.99,,,-99.99,,2013-06-02 01:32:00,
2013-06-01 20:42:00,69.0,55.0,29.90,WNW,290,8.0,14.0,62,-99.99,,,-99.99,,2013-06-02 01:42:00,
2013-06-01 20:52:00,67.0,55.0,29.91,NW,305,7.0,11.0,64,-99.99,,,-99.99,,2013-06-02 01:52:00,
2013-06-01 21:01:00,67.0,55.0,29.91,NW,305,7.0,11.0,64,-99.99,,,-99.99,,2013-06-02 02:01:00,
2013-06-01 21:12:00,67.0,54.0,29.91,NW,310,10.0,14.0,65,-99.99,,,-99.99,,2013-06-02 02:12:00,
2013-06-01 21:21:00,66.0,54.0,29.92,WNW,300,8.0,12.0,67,-99.99,,,-99.99,,2013-06-02 02:21:00,
2013-06-01 21:32:00,66.0,54.0,29.92,WNW,300,8.0,12.0,67,-99.99,,,-99.99,,2013-06-02 02:32:00,
2013-06-01 21:42:00,66.0,55.0,29.93,West,280,5.0,9.0,68,-99.99,,,-99.99,,2013-06-02 02:42:00,
2013-06-01 21:52:00,65.0,55.0,29.94,West,280,4.0,6.0,70,-99.99,,,-99.99,,2013-06-02 02:52:00,
2013-06-01 22:02:00,65.0,55.0,29.94,West,280,4.0,6.0,70,-99.99,,,-99.99,,2013-06-02 03:02:00,
2013-06-01 22:11:00,65.0,55.0,29.94,WNW,290,6.0,9.0,71,-99.99,,,-99.99,,2013-06-02 03:11:00,
2013-06-01 22:21:00,64.0,55.0,29.94,WNW,295,4.0,5.0,72,-99.99,,,-99.99,,2013-06-02 03:21:00,
2013-06-01 22:33:00,64.0,55.0,29.94,West,280,2.0,4.0,73,-99.99,,,-99.99,,2013-06-02 03:33:00,
2013-06-01 22:43:00,64.0,55.0,29.94,West,280,2.0,4.0,73,-99.99,,,-99.99,,2013-06-02 03:43:00,
2013-06-01 22:52:00,63.0,55.0,29.95,West,280,2.0,4.0,75,-99.99,,,-99.99,,2013-06-02 03:52:00,
2013-06-01 23:02:00,63.0,-99.9,29.95,West,280,2.0,4.0,75,-99.99,,,-99.99,,2013-06-02 04:02:00,
2013-06-01 23:13:00,63.0,55.0,29.95,WNW,290,4.0,5.0,76,-99.99,,,-99.99,,2013-06-02 04:13:00,
2013-06-01 23:23:00,63.0,55.0,29.96,West,280,4.0,6.0,75,-99.99,,,-99.99,,2013-06-02 04:23:00,
2013-06-01 23:33:00,63.0,55.0,29.96,West,280,4.0,6.0,75,-99.99,,,-99.99,,2013-06-02 04:33:00,
2013-06-01 23:42:00,63.0,55.0,29.96,West,280,4.0,6.0,75,-99.99,,,-99.99,,2013-06-02 04:42:00,
2013-06-01 23:52:00,64.0,56.0,29.96,WNW,285,7.0,10.0,75,-99.99,,,-99.99,,2013-06-02 04:52:00,